DateTimeUTC,F1_A11,F1_S11,BsB_S11,BsG_S11,BsR_S11,BbsB_S11,BbsG_S11,BbsR_S11,BaB_A11,BaG_A11,BaR_A11,Tu_S11,T_S11,Uu_S11,U_S11,P_S11,T1_A11
2021-03-29T13:00:00Z,00000200,20000000,,,,,,,0000.96,0000.81,0000.69,17.9,24.7,01.7,01.1,0641.5,31.1
2021-03-29T13:01:00Z,00000200,20000000,,,,,,,0000.25,0000.18,0000.18,18.0,24.7,02.0,01.3,0641.5,31.0
2021-03-29T13:02:00Z,00000200,20000000,,,,,,,-000.41,-000.39,-000.19,18.0,24.7,02.0,01.3,0641.5,31.0
2021-03-29T13:03:00Z,00000200,60000000,,,,,,,-001.57,-001.29,-001.19,18.0,24.7,02.3,01.5,0641.5,31.1
2021-03-29T13:04:00Z,00000200,41000000,0000.68,-000.02,0000.50,0000.10,0000.43,0000.18,-001.91,-001.54,-000.85,18.2,24.7,01.7,01.1,0642.5,31.0
2021-03-29T13:05:00Z,00000200,01000000,0000.33,-000.02,0000.11,0000.52,0000.04,0000.12,-001.31,-001.03,-000.87,18.3,24.7,01.1,00.7,0642.6,31.0
2021-03-29T13:06:00Z,00000200,01000000,-000.37,0000.23,0000.17,0000.20,0000.37,0000.07,-000.85,-001.20,-000.49,18.3,24.7,00.8,00.5,0642.6,31.1
2021-03-29T13:07:00Z,00000200,01000000,0000.14,0000.29,-000.03,0000.07,-000.08,-000.08,0000.16,0000.60,-000.09,18.3,24.7,00.6,00.4,0642.6,31.0
2021-03-29T13:08:00Z,00000200,01000000,-000.01,0000.03,0000.25,-000.15,0000.07,-000.23,0000.00,-000.76,-000.36,18.3,24.7,00.6,00.4,0642.7,31.1
2021-03-29T13:09:00Z,00000200,01000000,0000.23,-000.01,0000.16,0000.20,0000.14,0000.14,0000.02,0000.62,0000.45,18.3,24.7,00.5,00.3,0642.7,31.0
2021-03-29T13:10:00Z,00000200,01000000,-000.08,-000.43,0000.15,0000.13,-000.03,-000.03,0000.14,0000.06,-000.15,18.4,24.7,00.5,00.4,0642.7,31.1
2021-03-29T13:11:00Z,00000200,01000000,0000.27,0000.15,-000.03,0000.43,-000.01,-000.17,-000.08,0000.14,0000.15,18.4,24.7,00.5,00.3,0642.7,31.1
2021-03-29T13:12:00Z,00000200,01000000,0000.01,0000.24,0000.12,0000.29,0000.12,0000.00,0000.57,0000.38,0000.66,18.4,24.8,00.5,00.3,0642.7,31.1
2021-03-29T13:13:00Z,00000200,01000000,0000.36,0000.43,0000.34,0000.31,0000.20,-000.15,0000.77,0000.59,0000.44,18.4,24.8,00.7,00.5,0642.7,31.1
2021-03-29T13:14:00Z,00000200,01000000,0000.11,0000.42,0000.11,-000.30,0000.05,-000.19,0000.93,0000.75,0000.30,18.4,24.8,00.9,00.6,0642.7,31.1
2021-03-29T13:15:00Z,00000200,01000000,0000.19,0000.05,0000.00,0000.13,-000.05,-000.04,-000.30,-000.00,-000.04,18.5,24.8,01.0,00.7,0642.7,31.1
2021-03-29T13:16:00Z,00000200,01000000,0000.27,-000.10,0000.00,0000.32,0000.11,-000.17,-000.60,-000.84,-000.68,18.5,24.8,00.8,00.5,0642.7,31.1
2021-03-29T13:17:00Z,00000200,01000000,0000.16,0000.19,0000.17,0000.00,0000.19,0000.12,-001.25,-000.78,-000.35,18.5,24.8,00.6,00.4,0642.7,31.1
2021-03-29T13:18:00Z,00000200,01000000,0000.17,0000.32,0000.11,0000.11,0000.29,-000.14,-000.76,-000.85,-000.77,18.5,24.8,00.3,00.2,0642.8,31.1
2021-03-29T13:19:00Z,00000200,01000000,-000.05,0000.01,0000.16,0000.73,-000.13,-000.12,-000.40,-000.69,-000.42,18.5,24.9,00.2,00.1,0642.8,31.1
2021-03-29T13:20:00Z,00000200,01000000,0000.32,0000.21,0000.14,0000.40,-000.08,0000.19,-000.48,-000.34,0000.05,18.5,24.9,00.1,00.1,0642.8,31.1
2021-03-29T13:21:00Z,00000200,01000000,0000.03,0000.21,0000.06,0000.22,0000.03,-000.01,0000.03,-000.11,-000.13,18.5,24.9,00.0,00.0,0642.8,31.1
2021-03-29T13:22:00Z,00000200,01000000,-000.06,0000.15,-000.02,0000.33,-000.15,0000.11,-000.47,-000.17,-000.19,18.5,24.9,00.0,00.0,0642.9,31.1
2021-03-29T13:23:00Z,00000200,01000000,-000.01,0000.20,0000.49,0000.27,-000.12,-000.13,-000.86,-000.05,-000.45,18.5,24.9,00.0,00.0,0642.9,31.1
2021-03-29T13:24:00Z,00000200,01000000,0000.06,0000.36,0000.43,-000.39,0000.14,-000.18,-000.47,-000.88,-000.34,18.5,24.9,00.0,00.0,0642.9,31.1
2021-03-29T13:25:00Z,00000200,01000000,0000.01,0000.45,0000.30,0000.34,-000.06,-000.17,0000.04,0000.03,0000.08,18.6,24.9,00.0,00.0,0642.9,31.1
2021-03-29T13:26:00Z,00000200,01000000,0000.25,-000.01,0000.35,0000.04,0000.12,0000.04,0000.22,0000.43,-000.11,18.6,24.9,,00.0,0642.9,31.1
2021-03-29T13:27:00Z,00000200,01000000,0000.31,0000.31,0000.50,-000.31,0000.23,0000.10,0000.45,0000.09,0000.29,18.6,25.0,,00.0,0642.9,31.1
2021-03-29T13:28:00Z,00000200,01000000,-000.27,0000.26,0000.22,0000.41,0000.11,0000.08,0000.25,0000.17,0000.21,18.6,25.0,00.0,00.0,0642.9,31.1
2021-03-29T13:29:00Z,00000200,01000000,-000.26,0000.25,0000.14,0000.28,0000.33,0000.04,0000.28,0000.39,0000.17,18.6,25.0,,00.0,0642.9,31.1
2021-03-29T13:30:00Z,00000200,01000000,0000.26,-000.23,0000.09,0000.33,0000.24,-000.03,0000.57,0000.49,0000.51,18.6,25.0,,00.0,0642.9,31.1
2021-03-29T13:31:00Z,00000200,01000000,0000.10,0000.17,0000.34,0000.10,0000.07,-000.12,0000.35,0000.61,0000.39,18.6,25.0,,00.0,0642.9,31.1
2021-03-29T13:32:00Z,00000200,01000000,0000.17,0000.17,0000.25,0000.23,0000.17,-000.02,0000.24,0000.31,0000.13,18.6,25.0,00.0,00.0,0642.9,31.1
2021-03-29T13:33:00Z,00000200,01000000,-000.42,0000.16,0000.08,0000.22,0000.17,0000.02,0000.54,0000.09,0000.23,18.7,25.0,00.0,00.0,0642.9,31.1
2021-03-29T13:34:00Z,00000200,01000000,0000.48,0000.02,-000.07,0000.29,-000.07,0000.09,0000.06,0000.21,0000.56,18.7,25.1,00.0,00.0,0642.9,31.1
2021-03-29T13:35:00Z,00000200,01000000,0000.08,-000.02,0000.03,0000.22,0000.05,0000.22,0000.63,0000.50,0000.32,18.7,25.1,00.0,00.0,0642.9,31.1
2021-03-29T13:36:00Z,00000200,01000000,-000.07,0000.31,0000.35,0000.02,-000.05,0000.10,0000.18,0000.07,-000.09,18.7,25.1,00.1,00.1,0642.9,31.1
2021-03-29T13:37:00Z,00000200,01000000,-000.42,0000.11,0000.18,0000.36,-000.15,0000.00,-000.06,0000.15,-000.25,18.7,25.1,00.1,00.0,0642.9,31.1
2021-03-29T13:38:00Z,00000200,01000000,0000.24,0000.14,0000.28,0000.26,0000.27,-000.08,0000.22,0000.23,0000.31,18.7,25.1,00.1,00.0,0642.9,31.1
2021-03-29T13:39:00Z,00000200,01000000,0000.28,0000.10,0000.15,0000.54,0000.17,0000.03,0000.24,0000.11,0000.02,18.7,25.1,00.1,00.0,0642.8,31.1
2021-03-29T13:40:00Z,00000200,01000000,0000.39,0000.08,0000.39,-000.08,-000.01,0000.05,0000.31,0000.18,0000.50,18.7,25.1,00.1,00.0,0642.9,31.1
2021-03-29T13:41:00Z,00000200,01000000,0000.82,0000.04,0000.09,0000.15,0000.26,-000.05,0000.72,0000.40,0000.68,18.7,25.1,00.1,00.1,0642.9,31.1
2021-03-29T13:42:00Z,00000200,01000000,-000.17,-000.15,0000.12,0000.33,-000.18,0000.02,-000.33,0000.16,-000.31,18.7,25.1,00.1,00.1,0642.9,31.1
2021-03-29T13:43:00Z,00000200,01000000,-000.07,-000.15,0000.13,-000.19,0000.08,-000.22,-000.13,-000.79,-000.30,18.7,25.1,00.1,00.1,0642.9,31.1
2021-03-29T13:44:00Z,00000200,01000000,0000.57,0000.11,0000.19,0000.60,-000.24,-000.10,0000.07,0000.41,-000.19,18.7,25.1,00.1,00.0,0642.9,31.1
2021-03-29T13:45:00Z,00000200,01000000,-000.16,-000.31,-000.09,0000.17,-000.02,-000.23,0000.20,0000.23,0000.23,18.7,25.1,00.1,00.0,0642.9,31.1
2021-03-29T13:46:00Z,00000200,01000000,-000.27,-000.11,0000.25,0000.41,-000.27,-000.02,0000.57,0000.47,0000.50,18.7,25.1,00.1,00.1,0643.0,31.0
2021-03-29T13:47:00Z,00000200,01000000,-000.30,0000.15,-000.11,0000.18,0000.03,0000.02,-000.43,-000.37,-000.69,18.7,25.1,00.2,00.1,0643.0,31.0
2021-03-29T13:48:00Z,00000200,01000000,0000.46,0000.35,0000.08,-000.03,0000.26,0000.01,-000.41,-000.26,0000.23,18.7,25.1,00.1,00.1,0643.0,31.0
2021-03-29T13:49:00Z,00000200,01000000,0000.02,0000.04,0000.30,0000.72,0000.08,-000.05,0000.44,0000.26,0000.52,18.7,25.1,00.1,00.0,0643.0,31.0
2021-03-29T13:50:00Z,00000200,01000000,0000.06,0000.38,0000.04,0000.16,-000.02,-000.09,0001.07,0000.78,0000.45,18.7,25.1,00.1,00.1,0643.0,31.0
2021-03-29T13:51:00Z,00000200,01000000,0000.07,-000.05,0000.29,0000.35,0000.05,-000.00,0000.33,0000.84,0000.32,18.7,25.2,00.1,00.1,0643.0,31.1
2021-03-29T13:52:00Z,00000200,01000000,0000.23,0000.01,0000.10,-000.55,0000.13,0000.04,0000.10,-000.16,0000.48,18.7,25.2,00.2,00.2,0643.0,31.1
2021-03-29T13:53:00Z,00000200,01000000,-000.33,-000.26,0000.20,0000.08,0000.05,-000.35,0000.38,0000.10,-000.30,18.7,25.2,00.2,00.1,0643.0,31.1
2021-03-29T13:54:00Z,00000200,01000000,-000.31,-000.01,0000.11,0000.16,0000.38,0000.15,0000.18,0000.26,0000.18,18.7,25.2,00.3,00.2,0643.0,31.1
2021-03-29T13:55:00Z,00000200,01000000,0000.26,0000.02,-000.03,-000.01,-000.06,0000.12,0000.15,0000.26,0000.24,18.7,25.2,00.2,00.2,0643.0,31.1
2021-03-29T13:56:00Z,00000200,01000000,0000.30,-000.21,0000.37,0000.08,0000.03,-000.19,0000.16,0000.10,0000.14,18.7,25.2,00.3,00.2,0643.0,31.1
2021-03-29T13:57:00Z,00000200,41000000,,,,,,,0000.31,0000.70,0000.38,18.8,25.2,00.9,00.6,0643.0,31.1
2021-03-29T13:58:00Z,00000200,61000000,,,,,,,-000.09,-000.56,-000.51,18.6,25.3,00.1,00.1,0642.1,31.1
2021-03-29T13:59:00Z,00000200,21000000,,,,,,,0000.19,0000.75,0000.44,18.5,25.4,,00.0,0642.1,31.1
